Weather History for LICC - September, 2013

Change the Weather History Date:

Monday, September 30, 2013

  Actual Average Record
Temperature  
Mean Temperature 78 °F -  
Max Temperature 86 °F 76 °F 86 °F (2013)
Min Temperature 69 °F 57 °F 32 °F (1996)
Cooling Degree Days 12    
Growing Degree Days 28 (Base 50)    
Moisture  
Dew Point 58 °F    
Average Humidity 57    
Maximum Humidity 83    
Minimum Humidity 27    
Precipitation  
Precipitation 0.00 in 0.14 in - ()
Sea Level Pressure  
Sea Level Pressure 29.69 in    
Wind  
Wind Speed 9 mph ()    
Max Wind Speed 21 mph    
Max Gust Speed 31 mph    
Visibility 6.2 miles    
Events Thunderstorm    
Averages and records for this station are not official NWS values.
T = Trace of Precipitation, MM = Missing Value Source: Averaged Metar Reports

Daily Weather History Graph

Daily Weather History Graph

Search for Another Location

Airport or City:

Trip Planner

Search our weather history database for the weather conditions in past years. The results will help you decide how hot, cold, wet, or windy it might be!

Date:

Astronomy

Sep. 30, 2013 Rise Set
Actual Time 6:54 AM CEST 6:44 PM CEST
Civil Twilight 6:28 AM CEST 7:10 PM CEST
Nautical Twilight 5:57 AM CEST 7:40 PM CEST
Astronomical Twilight 5:27 AM CEST 8:11 PM CEST
Moon 2:19 AM CEST (9/30) 4:01 PM CEST (9/30)
Length of Visible Light 12h 42m
Length of Day
11h 50m
Waning Crescent, 21% of the Moon is Illuminated
Sep 30
Waning Crescent
Oct 5
New
Oct 12
First Quarter
Oct 19
Full
Oct 27
Last Quarter

Hourly Weather History & Observations

Time (CEST) Temp. Heat Index Dew Point Humidity Pressure Visibility Wind Dir Wind Speed Gust Speed Precip Events Conditions
12:20 AM 75.2 °F - 68.0 °F 78% 29.77 in 6.2 mi ENE 12.7 mph - N/A   Scattered Clouds
12:50 AM 75.2 °F - 68.0 °F 78% 29.77 in 6.2 mi NE 9.2 mph - N/A   Scattered Clouds
1:20 AM 75.2 °F - 68.0 °F 78% 29.77 in 6.2 mi NNE 9.2 mph - N/A   Scattered Clouds
2:50 AM 75.2 °F - 68.0 °F 78% 29.71 in 6.2 mi NE 10.4 mph - N/A   Scattered Clouds
3:20 AM 75.2 °F - 68.0 °F 78% 29.74 in 6.2 mi NW 3.5 mph - N/A   Scattered Clouds
3:50 AM 73.4 °F - 66.2 °F 78% 29.71 in 6.2 mi WNW 5.8 mph - N/A   Scattered Clouds
4:20 AM 73.4 °F - 66.2 °F 78% 29.71 in 6.2 mi WSW 3.5 mph - N/A   Scattered Clouds
4:50 AM 71.6 °F - 66.2 °F 83% 29.71 in 6.2 mi WSW 4.6 mph - N/A   Scattered Clouds
5:50 AM 71.6 °F - 66.2 °F 83% 29.71 in 6.2 mi WSW 5.8 mph - N/A   Scattered Clouds
6:20 AM 69.8 °F - 64.4 °F 83% 29.71 in 6.2 mi WSW 5.8 mph - N/A   Scattered Clouds
6:50 AM 69.8 °F - 64.4 °F 83% 29.71 in 6.2 mi SW 4.6 mph - N/A   Mostly Cloudy
7:20 AM 71.6 °F - 64.4 °F 78% 29.71 in 6.2 mi WSW 6.9 mph - N/A   Partly Cloudy
7:50 AM 71.6 °F - 62.6 °F 73% 29.71 in 6.2 mi West 5.8 mph - N/A   Partly Cloudy
8:20 AM 73.4 °F - 62.6 °F 69% 29.71 in 6.2 mi SSW 4.6 mph - N/A   Partly Cloudy
8:50 AM 71.6 °F - 64.4 °F 78% 29.77 in 6.2 mi SW 10.4 mph - N/A   Partly Cloudy
9:20 AM 71.6 °F - 64.4 °F 78% 29.71 in 6.2 mi NNW 4.6 mph - N/A   Scattered Clouds
9:50 AM 73.4 °F - 64.4 °F 73% 29.74 in 6.2 mi West 6.9 mph - N/A Thunderstorm Thunderstorm
10:20 AM 71.6 °F - 66.2 °F 83% 29.71 in 6.2 mi SW 3.5 mph - N/A   Mostly Cloudy
10:50 AM 73.4 °F - 66.2 °F 78% 29.71 in 6.2 mi WSW 6.9 mph - N/A   Mostly Cloudy
11:20 AM 75.2 °F - 64.4 °F 69% 29.71 in 6.2 mi WSW 9.2 mph - N/A   Mostly Cloudy
11:50 AM 78.8 °F - 59.0 °F 51% 29.71 in 6.2 mi WSW 11.5 mph - N/A   Mostly Cloudy
12:20 PM 80.6 °F - 50.0 °F 34% 29.68 in 6.2 mi WSW 15.0 mph - N/A   Scattered Clouds
12:50 PM 82.4 °F - 51.8 °F 35% 29.68 in 6.2 mi West 16.1 mph - N/A   Scattered Clouds
1:20 PM 84.2 °F 82.8 °F 53.6 °F 35% 29.68 in 6.2 mi West 11.5 mph - N/A   Scattered Clouds
1:50 PM 84.2 °F 82.8 °F 53.6 °F 35% 29.65 in 6.2 mi WSW 16.1 mph - N/A   Partly Cloudy
2:20 PM 84.2 °F 82.8 °F 53.6 °F 35% 29.65 in 6.2 mi WSW 17.3 mph - N/A   Scattered Clouds
2:50 PM 86.0 °F - 51.8 °F 31% 29.62 in 6.2 mi WSW 18.4 mph 31.1 mph N/A   Scattered Clouds
3:20 PM 86.0 °F - 50.0 °F 29% 29.62 in 6.2 mi West 19.6 mph - N/A   Partly Cloudy
3:50 PM 86.0 °F - 51.8 °F 31% 29.62 in 6.2 mi West 18.4 mph 29.9 mph N/A   Partly Cloudy
4:20 PM 86.0 °F - 48.2 °F 27% 29.62 in 6.2 mi WSW 20.7 mph - N/A   Scattered Clouds
4:50 PM 84.2 °F - 48.2 °F 29% 29.62 in 6.2 mi WSW 18.4 mph - N/A   Scattered Clouds
5:20 PM 82.4 °F - 50.0 °F 32% 29.62 in 6.2 mi WSW 18.4 mph - N/A   Scattered Clouds
5:50 PM 80.6 °F - 51.8 °F 37% 29.62 in 6.2 mi WSW 15.0 mph - N/A   Mostly Cloudy
6:20 PM 80.6 °F 80.3 °F 53.6 °F 39% 29.65 in 6.2 mi WSW 15.0 mph - N/A   Mostly Cloudy
6:50 PM 78.8 °F - 55.4 °F 44% 29.65 in 6.2 mi WSW 10.4 mph - N/A   Mostly Cloudy
7:50 PM 77.0 °F - 55.4 °F 47% 29.68 in 6.2 mi West 11.5 mph - N/A   Scattered Clouds
8:20 PM 77.0 °F - 51.8 °F 41% 29.68 in 6.2 mi West 13.8 mph - N/A   Scattered Clouds
8:50 PM 75.2 °F - 50.0 °F 41% 29.68 in 6.2 mi West 12.7 mph - N/A   Partly Cloudy
9:20 PM 75.2 °F - 50.0 °F 41% 29.71 in 6.2 mi WNW 12.7 mph - N/A   Partly Cloudy
9:50 PM 73.4 °F - 51.8 °F 47% 29.71 in 6.2 mi West 9.2 mph - N/A   Partly Cloudy
10:20 PM 73.4 °F - 53.6 °F 50% 29.71 in 6.2 mi WSW 9.2 mph - N/A   Partly Cloudy
10:50 PM 71.6 °F - 53.6 °F 53% 29.71 in - WSW 8.1 mph - N/A   Clear
11:20 PM 71.6 °F - 55.4 °F 57% 29.71 in - WSW 10.4 mph - N/A   Clear
11:50 PM 71.6 °F - 55.4 °F 57% 29.71 in - West 11.5 mph - N/A   Clear